Location: Aufkirchen
(47.9603°N, 11.3653°E)
Time: 15:00:58
(UTC+01:00)

Transit 2A Rocket - Pass Details

Date: 10 December 2020
Orbit: 592 x 910 km, 66.7° (Epoch: 21 January)

Event Time Altitude Azimuth Distance (km) Brightness Sun altitude
Rises 23:21:33 0° 208° (SSW) 3,488 - -63.4°
Reaches altitude 10° 23:24:07 10° 207° (SSW) 2,524 - -63.6°
Maximum altitude 23:29:58 78° 123° (ESE) 856 - -63.9°
Drops below altitude 10° 23:35:25 10° 37° (NE) 2,352 - -64.2°
Sets 23:37:44 0° 36° (NE) 3,234 - -64.3°
